Location: Newark
(51.3656°N, 14.2631°E)
Time: 17:07:11
(UTC+00:00)

Envisat - Visible Passes

Search period start: 29 January 2020 00:00
Search period end: 08 February 2020 00:00
Orbit: 764 x 766 km, 98.1° (Epoch: 29 January)

Date Brightness Start Highest point End Pass type
(mag) Time Alt. Az. Time Alt. Az. Time Alt. Az.
29 Jan 4.3 05:23:09 10° NNE 05:28:04 45° E 05:32:54 10° S visible
29 Jan 3.1 16:42:50 10° SSE 16:47:56 85° W 16:53:03 10° NNW visible
29 Jan 6.1 18:25:06 10° WSW 18:27:44 14° W 18:30:24 10° NW visible
30 Jan 5.5 04:46:55 10° NE 04:50:58 23° E 04:54:59 10° SE visible
30 Jan 5.2 17:46:12 10° SSW 17:50:30 27° W 17:54:50 10° NW visible
31 Jan 6.3 04:11:56 10° ENE 04:13:40 12° E 04:15:25 10° ESE visible
31 Jan 3.4 05:48:32 10° NNE 05:53:38 72° ESE 05:58:42 10° S visible
31 Jan 3.9 17:08:30 10° S 17:13:28 53° W 17:18:28 10° NNW visible
01 Feb 4.7 05:11:58 10° NNE 05:16:42 37° E 05:21:22 10° SSE visible
01 Feb 3.0 16:31:33 10° SSE 16:36:38 80° ENE 16:41:44 10° NNW visible
01 Feb 5.9 18:12:58 10° SW 18:16:17 17° W 18:19:37 10° NW visible
02 Feb 5.9 04:35:56 10° NE 04:39:32 19° E 04:43:08 10° SE visible
02 Feb 4.9 17:34:32 10° SSW 17:39:06 33° W 17:43:43 10° NNW visible
03 Feb 3.7 05:37:16 10° NNE 05:42:19 59° E 05:47:19 10° S visible
03 Feb 3.5 16:57:05 10° S 17:02:08 65° WSW 17:07:13 10° NNW visible
03 Feb 6.5 18:41:29 10° W 18:42:11 10° W 18:42:53 10° WNW visible
04 Feb 5.1 05:00:50 10° NNE 05:05:18 30° E 05:09:46 10° SSE visible
04 Feb 5.7 18:01:03 10° SW 18:04:52 21° W 18:08:41 10° NW visible
05 Feb 6.1 04:25:04 10° NE 04:28:06 16° E 04:31:07 10° ESE visible
05 Feb 4.5 17:22:58 10° SSW 17:27:44 40° W 17:32:33 10° NNW visible
06 Feb 4.2 05:26:02 10° NNE 05:30:58 48° E 05:35:53 10° S visible
06 Feb 3.2 16:45:44 10° SSE 16:50:49 80° WSW 16:55:57 10° NNW visible
06 Feb 6.3 18:28:24 10° WSW 18:30:42 13° W 18:33:00 10° WNW visible
07 Feb 5.5 04:49:44 10° NE 04:53:54 25° E 04:58:04 10° SSE visible
07 Feb 5.4 17:49:15 10° SSW 17:53:26 25° W 17:57:39 10° NW visible
